Location: Chin
(49.7667°N, 112.4500°W)
Time: 12:10:29
(UTC+00:00)

N. Korean satellite - Pass Details

Date: 06 December 2021
Orbit: 447 x 491 km, 97.3° (Epoch: 21 January)

Event Time Altitude Azimuth Distance (km) Brightness Sun altitude
Rises 00:21:58 0° 187° (S) 2,523 10.7 -8.1°
Reaches altitude 10° 00:24:10 10° 198° (SSW) 1,641 9.9 -8.4°
Maximum altitude 00:27:22 32° 263° (W) 824 8.5 -8.9°
Drops below altitude 10° 00:30:34 10° 329° (NNW) 1,629 9.3 -9.4°
Sets 00:32:45 0° 339° (NNW) 2,502 10.2 -9.7°
